This demonstration page uses our WeatherBlox Daily Observations layout. Learn more.

Hourly Observations for August 30, 2016

Temp ( °F °C ) Dew Point ( °F °C ) Humidity (%) Winds ( mph kmh ) Pressure ( in mb ) Visibility ( mi km ) Precip ( " mm )
12:15 am 00:15 Cloudy with Light Rain 68 20.2 66 19.1 93 93 WNW 3 6 30.15 1021 7 11.265408 0.01 0.254
12:35 am 00:35 Cloudy with Rain 68 20.2 66 19.1 93 93 W 3 6 30.15 1021 10 16.09344 0.02 0.508
12:55 am 00:55 Cloudy with Light Drizzle 68 20.1 66 19 93 93 Calm 30.15 1021 10 16.09344 0.02 0.508
1:15 am 01:15 Cloudy with Light Drizzle 67 19.7 66 18.7 94 94 Calm 30.15 1021 7 11.265408 0 0
1:35 am 01:35 Partly Cloudy 67 19.6 66 18.7 95 95 Calm 30.15 1021 7 11.265408 0 0
1:55 am 01:55 Partly Cloudy 67 19.6 66 18.7 95 95 Calm 30.12 1020 7 11.265408 0 0
2:15 am 02:15 Mostly Cloudy with Light Drizzle 67 19.7 66 18.8 95 95 Calm 30.12 1020 7 11.265408 0 0
2:35 am 02:35 Partly Cloudy 67 19.7 66 18.8 95 95 Calm 30.12 1020 7 11.265408 0 0
2:55 am 02:55 Clear 68 19.8 66 19 95 95 Calm 30.12 1020 7 11.265408 0 0
3:15 am 03:15 Partly Cloudy with Light Drizzle 67 19.5 65 18.6 95 95 Calm 30.12 1020 5 8.04672 0 0
3:35 am 03:35 Partly Cloudy with Mist and Fog 67 19.5 65 18.6 95 95 ESE 6 9 30.12 1020 4 6.437376 0 0
3:55 am 03:55 Clear 67 19.3 65 18.5 95 95 S 3 6 30.12 1020 7 11.265408 0 0
4:15 am 04:15 Clear 67 19.3 65 18.5 95 95 Calm 30.12 1020 7 11.265408 0 0
4:35 am 04:35 Partly Cloudy 67 19.3 65 18.3 94 94 Calm 30.12 1020 7 11.265408 0 0
4:55 am 04:55 Partly Cloudy 67 19.3 65 18.3 94 94 Calm 30.12 1020 7 11.265408 0 0
5:15 am 05:15 Clear with Mist and Fog 66 18.7 64 17.9 95 95 Calm 30.12 1020 4 6.437376 0 0
5:35 am 05:35 Partly Cloudy with Mist and Fog 66 18.7 64 18 96 96 Calm 30.12 1020 5 8.04672 0 0
5:55 am 05:55 Clear with Mist and Fog 65 18.6 64 18 96 96 Calm 30.12 1020 4 6.437376 0 0
6:15 am 06:15 Partly Cloudy with Mist and Fog 66 18.7 64 18 96 96 Calm 30.12 1020 5 8.04672 0 0
6:35 am 06:35 Partly Cloudy 66 18.8 65 18.1 96 96 Calm 30.12 1020 7 11.265408 0 0
6:55 am 06:55 Partly Cloudy 65 18.6 64 17.8 95 95 Calm 30.12 1020 7 11.265408 0 0
7:15 am 07:15 Mostly Cloudy 66 18.8 64 18 95 95 S 5 7 30.15 1021 10 16.09344 0 0
7:35 am 07:35 Cloudy 65 18.6 64 17.7 95 95 S 5 7 30.15 1021 7 11.265408 0 0
7:55 am 07:55 Cloudy with Light Rain 66 18.8 64 18 95 95 SSW 3 6 30.15 1021 5 8.04672 0 0
8:15 am 08:15 Mostly Cloudy with Rain 66 19 65 18.1 95 95 Calm 30.15 1021 4 6.437376 0 0
8:35 am 08:35 Mostly Cloudy with Light Drizzle 66 19.1 65 18.3 95 95 SW 3 6 30.15 1021 4 6.437376 0.01 0.254
8:55 am 08:55 Mostly Cloudy with Light Drizzle 67 19.3 65 18.5 95 95 Calm 30.15 1021 7 11.265408 0.01 0.254
9:15 am 09:15 Mostly Cloudy with Light Rain 67 19.5 65 18.5 94 94 Calm 30.15 1021 7 11.265408 0 0
9:35 am 09:35 Cloudy with Light Rain 68 19.8 65 18.5 92 92 Calm 30.15 1021 10 16.09344 0 0
9:55 am 09:55 Partly Cloudy 68 20.1 66 18.7 92 92 Calm 30.15 1021 10 16.09344 0 0
10:15 am 10:15 Sunny 69 20.5 66 18.8 90 90 Calm 30.15 1021 10 16.09344 0 0
10:35 am 10:35 Partly Cloudy 70 21 66 19 88 88 Calm 30.15 1021 10 16.09344 0 0
10:55 am 10:55 Mostly Cloudy 70 21.1 65 18.6 86 86 Calm 30.15 1021 10 16.09344 0 0
11:15 am 11:15 Cloudy 71 21.5 66 18.9 85 85 Calm 30.15 1021 10 16.09344 0 0
11:35 am 11:35 Cloudy 71 21.5 65 18.6 84 84 Calm 30.18 1022 10 16.09344 0 0
11:55 am 11:55 Cloudy 71 21.7 66 18.7 83 83 Calm 30.12 1020 10 16.09344 0 0
12:15 pm 12:15 Mostly Cloudy 72 22 65 18.5 81 81 Calm 30.12 1020 10 16.09344 0 0
12:35 pm 12:35 Partly Cloudy 72 22.4 65 18.6 79 79 Calm 30.12 1020 10 16.09344 0 0
12:55 pm 12:55 Mostly Cloudy 73 22.7 65 18.4 77 77 Calm 30.12 1020 10 16.09344 0 0
1:15 pm 13:15 Mostly Cloudy 73 22.9 65 18.6 77 77 Calm 30.12 1020 10 16.09344 0 0
1:35 pm 13:35 Mostly Cloudy 74 23.5 66 18.9 75 75 NNW 3 6 30.12 1020 10 16.09344 0 0
1:55 pm 13:55 Mostly Cloudy 74 23.4 65 18.4 74 74 Calm 30.12 1020 10 16.09344 0 0
2:15 pm 14:15 Mostly Cloudy 75 23.8 65 18.6 73 73 N 5 7 30.12 1020 10 16.09344 0 0
2:35 pm 14:35 Cloudy 74 23.6 65 18.1 71 71 NE 3 6 30.09 1019 10 16.09344 0 0
2:55 pm 14:55 Cloudy 75 24.1 65 18.2 70 70 NNE 3 6 30.09 1019 10 16.09344 0 0
3:15 pm 15:15 Mostly Cloudy 76 24.6 65 18.3 68 68 NNE 6 9 30.09 1019 10 16.09344 0 0
3:35 pm 15:35 Mostly Cloudy 75 24.1 65 18.2 70 70 Calm 30.09 1019 10 16.09344 0 0
3:55 pm 15:55 Cloudy 76 24.5 65 18.4 69 69 N 5 7 30.09 1019 10 16.09344 0 0
4:15 pm 16:15 Mostly Cloudy 76 24.4 65 18.6 70 70 N 5 7 30.06 1018 10 16.09344 0 0
4:35 pm 16:35 Mostly Cloudy 76 24.5 65 18.4 69 69 ENE 5 7 30.06 1018 10 16.09344 0 0
4:55 pm 16:55 Partly Cloudy 76 24.3 65 18.2 69 69 NE 6 9 30.06 1018 10 16.09344 0 0
5:15 pm 17:15 Partly Cloudy 76 24.2 65 18.2 69 69 E 5 7 30.06 1018 10 16.09344 0 0
5:35 pm 17:35 Partly Cloudy 75 24 65 18.5 71 71 ESE 5 7 30.06 1018 10 16.09344 0 0
5:55 pm 17:55 Cloudy 74 23.1 65 18.5 75 75 ENE 6 9 30.06 1018 10 16.09344 0 0
6:15 pm 18:15 Cloudy with Light Rain 73 22.7 65 18.5 77 77 Calm 30.06 1018 10 16.09344 0 0
6:35 pm 18:35 Mostly Cloudy 73 22.9 64 17.9 74 74 Calm 30.06 1018 10 16.09344 0 0
6:55 pm 18:55 Mostly Cloudy 72 22.3 67 19.3 83 83 Calm 30.06 1018 10 16.09344 0 0
7:15 pm 19:15 Mostly Cloudy 72 22.2 67 19.2 83 83 Calm 30.06 1018 10 16.09344 0 0
7:35 pm 19:35 Cloudy 71 21.5 67 19.5 88 88 Calm 30.06 1018 10 16.09344 0 0
7:55 pm 19:55 Mostly Cloudy 71 21.5 67 19.4 88 88 NE 3 6 30.06 1018 10 16.09344 0 0
8:15 pm 20:15 Partly Cloudy 70 21 65 18.6 86 86 ENE 5 7 30.06 1018 10 16.09344 0 0
8:35 pm 20:35 Mostly Cloudy 70 21.1 67 19.2 89 89 E 7 11 30.12 1020 10 16.09344 0 0
8:55 pm 20:55 Partly Cloudy 69 20.8 66 19.1 90 90 E 7 11 30.12 1020 10 16.09344 0 0
9:15 pm 21:15 Mostly Cloudy 69 20.8 66 19 90 90 ESE 7 11 30.12 1020 10 16.09344 0 0
9:35 pm 21:35 Cloudy 69 20.5 65 18.6 89 89 E 8 13 30.15 1021 10 16.09344 0 0
9:55 pm 21:55 Cloudy 69 20.5 65 18.5 88 88 E 6 9 30.15 1021 10 16.09344 0 0
10:15 pm 22:15 Mostly Cloudy 69 20.3 65 18.5 89 89 E 6 9 30.12 1020 10 16.09344 0 0
10:35 pm 22:35 Partly Cloudy 68 20 65 18.5 91 91 E 5 7 30.12 1020 10 16.09344 0 0
10:55 pm 22:55 Mostly Cloudy 67 19.7 65 18.4 92 92 Calm 30.12 1020 10 16.09344 0 0
11:15 pm 23:15 Cloudy 67 19.7 65 18.5 93 93 Calm 30.15 1021 10 16.09344 0 0
11:35 pm 23:35 Cloudy 68 20 66 18.7 92 92 Calm 30.15 1021 10 16.09344 0 0
11:55 pm 23:55 Cloudy 67 19.7 65 18.6 93 93 Calm 30.15 1021 7 11.265408 0 0

Powered by AerisWeather